• In Uzbekistan
  • List of Countries
  • For 7 days
  • Water Temperature
  • Satellite Maps
  • Weather Map
  • Weather Widgets
  • user-avatar
    Login

    Hourly Weather Kensington

    Today, 24 January, Wednesday

    Time Temperature Precipitation Wind Pressure Humidity
    00:00 +5°C° 0.7 mm 10 mps 746 mmHg 97%
    01:00 +5°C° 0.7 mm 10 mps 744 mmHg 96%
    02:00 +6°C° 0.7 mm 11 mps 743 mmHg 94%
    03:00 +6°C° 0.2 mm 10 mps 742 mmHg 94%
    04:00 +5°C° 0.2 mm 9 mps 741 mmHg 94%
    05:00 +5°C° 0.2 mm 8 mps 741 mmHg 94%
    06:00 +4°C° 0 mm 8 mps 741 mmHg 92%
    07:00 +2°C° 0 mm 8 mps 742 mmHg 91%
    08:00 +1°C° 0 mm 8 mps 742 mmHg 89%
    09:00 0°C° 0 mm 8 mps 743 mmHg 86%
    10:00 0°C° 0 mm 8 mps 743 mmHg 84%
    11:00 0°C° 0 mm 7 mps 744 mmHg 82%
    12:00 0°C° 0 mm 7 mps 744 mmHg 79%
    13:00 0°C° 0 mm 7 mps 744 mmHg 76%
    14:00 0°C° 0 mm 7 mps 744 mmHg 73%
    15:00 0°C° 0 mm 7 mps 745 mmHg 75%
    16:00 -1°C° 0 mm 7 mps 745 mmHg 76%
    17:00 -1°C° 0 mm 6 mps 746 mmHg 77%
    18:00 -3°C° 0 mm 7 mps 747 mmHg 74%
    19:00 -5°C° 0 mm 8 mps 748 mmHg 72%
    20:00 -6°C° 0 mm 9 mps 749 mmHg 69%
    21:00 -9°C° 0 mm 9 mps 749 mmHg 67%
    22:00 -10°C° 0 mm 9 mps 750 mmHg 65%
    23:00 -11°C° 0 mm 9 mps 751 mmHg 62%

    Tomorrow, 25 January, Thursday

    Time Temperature Precipitation Wind Pressure Humidity
    00:00 -12°C° 0 mm 9 mps 752 mmHg 62%
    01:00 -12°C° 0 mm 9 mps 752 mmHg 63%
    02:00 -14°C° 0 mm 9 mps 753 mmHg 63%
    03:00 -13°C° 0 mm 8 mps 753 mmHg 64%
    04:00 -15°C° 0 mm 8 mps 754 mmHg 64%
    05:00 -15°C° 0 mm 8 mps 754 mmHg 65%
    06:00 -16°C° 0 mm 8 mps 754 mmHg 66%
    07:00 -16°C° 0 mm 8 mps 755 mmHg 66%
    08:00 -17°C° 0 mm 7 mps 755 mmHg 66%
    09:00 -17°C° 0 mm 7 mps 756 mmHg 65%
    10:00 -17°C° 0 mm 7 mps 756 mmHg 63%
    11:00 -17°C° 0 mm 7 mps 757 mmHg 62%
    12:00 -17°C° 0 mm 7 mps 757 mmHg 61%
    13:00 -15°C° 0 mm 7 mps 757 mmHg 60%
    14:00 -15°C° 0 mm 7 mps 757 mmHg 59%
    15:00 -15°C° 0 mm 7 mps 757 mmHg 61%
    16:00 -15°C° 0 mm 7 mps 758 mmHg 63%
    17:00 -15°C° 0 mm 7 mps 758 mmHg 65%
    18:00 -15°C° 0 mm 7 mps 758 mmHg 66%
    19:00 -17°C° 0 mm 8 mps 759 mmHg 67%
    20:00 -17°C° 0 mm 8 mps 760 mmHg 68%
    21:00 -18°C° 0 mm 8 mps 760 mmHg 68%
    22:00 -18°C° 0 mm 8 mps 760 mmHg 69%
    23:00 -19°C° 0 mm 8 mps 761 mmHg 69%

    Day after tomorrow, 26 January, Friday

    Time Temperature Precipitation Wind Pressure Humidity
    00:00 -19°C° 0 mm 8 mps 761 mmHg 70%
    01:00 -19°C° 0 mm 7 mps 761 mmHg 71%
    02:00 -19°C° 0 mm 7 mps 762 mmHg 72%
    03:00 -19°C° 0 mm 7 mps 762 mmHg 72%
    04:00 -19°C° 0 mm 7 mps 762 mmHg 73%
    05:00 -20°C° 0 mm 7 mps 763 mmHg 73%
    06:00 -20°C° 0 mm 7 mps 764 mmHg 74%
    07:00 -20°C° 0 mm 7 mps 764 mmHg 74%
    08:00 -20°C° 0 mm 7 mps 765 mmHg 75%
    09:00 -20°C° 0 mm 7 mps 766 mmHg 74%
    10:00 -18°C° 0 mm 6 mps 766 mmHg 73%
    11:00 -18°C° 0 mm 6 mps 767 mmHg 72%
    12:00 -17°C° 0 mm 6 mps 767 mmHg 70%
    13:00 -17°C° 0 mm 6 mps 767 mmHg 68%
    14:00 -16°C° 0 mm 6 mps 768 mmHg 66%
    15:00 -15°C° 0 mm 5 mps 768 mmHg 66%
    16:00 -15°C° 0 mm 5 mps 769 mmHg 67%
    17:00 -14°C° 0 mm 5 mps 770 mmHg 68%
    18:00 -14°C° 0 mm 4 mps 770 mmHg 70%
    19:00 -14°C° 0 mm 4 mps 771 mmHg 72%
    20:00 -14°C° 0 mm 4 mps 772 mmHg 74%
    21:00 -14°C° 0 mm 4 mps 772 mmHg 76%
    22:00 -13°C° 0 mm 3 mps 772 mmHg 77%
    23:00 -13°C° 0 mm 3 mps 772 mmHg 79%

    27 January, Saturday

    Time Temperature Precipitation Wind Pressure Humidity
    00:00 -13°C° 0 mm 2 mps 773 mmHg 80%
    01:00 -13°C° 0 mm 2 mps 773 mmHg 80%
    02:00 -13°C° 0 mm 2 mps 773 mmHg 80%
    03:00 -13°C° 0 mm 2 mps 773 mmHg 79%
    04:00 -13°C° 0 mm 2 mps 773 mmHg 78%
    05:00 -13°C° 0 mm 2 mps 773 mmHg 77%
    06:00 -14°C° 0 mm 3 mps 772 mmHg 77%
    07:00 -13°C° 0 mm 3 mps 772 mmHg 76%
    08:00 -14°C° 0 mm 4 mps 772 mmHg 76%
    09:00 -12°C° 0 mm 5 mps 771 mmHg 75%
    10:00 -11°C° 0 mm 6 mps 770 mmHg 75%
    11:00 -9°C° 0 mm 7 mps 769 mmHg 74%
    12:00 -8°C° 0 mm 7 mps 768 mmHg 73%
    13:00 -7°C° 0 mm 7 mps 767 mmHg 71%
    14:00 -5°C° 0 mm 8 mps 766 mmHg 70%
    15:00 -5°C° 0 mm 8 mps 765 mmHg 72%
    16:00 -4°C° 0 mm 8 mps 764 mmHg 75%
    17:00 -4°C° 0 mm 8 mps 763 mmHg 77%
    18:00 -2°C° 0.2 mm 8 mps 762 mmHg 80%
    19:00 -1°C° 0.2 mm 8 mps 762 mmHg 83%
    20:00 -1°C° 0.2 mm 8 mps 761 mmHg 85%
    21:00 -1°C° 0.2 mm 7 mps 761 mmHg 87%
    22:00 -1°C° 0.2 mm 7 mps 761 mmHg 88%
    23:00 -1°C° 0.2 mm 6 mps 761 mmHg 89%

    28 January, Sunday

    Time Temperature Precipitation Wind Pressure Humidity
    00:00 -1°C° 0 mm 6 mps 761 mmHg 89%
    01:00 -2°C° 0 mm 6 mps 761 mmHg 89%
    02:00 -1°C° 0 mm 5 mps 761 mmHg 89%
    03:00 -2°C° 0 mm 5 mps 761 mmHg 89%
    04:00 -2°C° 0 mm 5 mps 761 mmHg 90%
    05:00 -2°C° 0 mm 5 mps 761 mmHg 90%
    06:00 -2°C° 0 mm 4 mps 761 mmHg 91%
    07:00 -3°C° 0 mm 4 mps 762 mmHg 91%
    08:00 -3°C° 0 mm 4 mps 762 mmHg 92%
    09:00 -2°C° 0 mm 4 mps 761 mmHg 90%
    10:00 -1°C° 0 mm 4 mps 761 mmHg 89%
    11:00 0°C° 0 mm 4 mps 761 mmHg 88%
    12:00 0°C° 0.3 mm 4 mps 760 mmHg 90%
    13:00 +1°C° 0.3 mm 3 mps 759 mmHg 92%
    14:00 +1°C° 0.3 mm 3 mps 758 mmHg 94%
    15:00 +1°C° 1 mm 3 mps 758 mmHg 95%
    16:00 +2°C° 1 mm 2 mps 757 mmHg 96%
    17:00 +1°C° 1 mm 2 mps 756 mmHg 98%
    18:00 +1°C° 1 mm 2 mps 756 mmHg 98%
    19:00 +1°C° 1 mm 2 mps 755 mmHg 98%
    20:00 +1°C° 1 mm 2 mps 755 mmHg 98%
    21:00 +1°C° 0.6 mm 2 mps 755 mmHg 97%
    22:00 0°C° 0.6 mm 3 mps 754 mmHg 96%
    23:00 -1°C° 0.6 mm 4 mps 754 mmHg 95%

    29 January, Monday

    Time Temperature Precipitation Wind Pressure Humidity
    00:00 -1°C° 0.1 mm 3 mps 755 mmHg 94%
    01:00 -1°C° 0.1 mm 3 mps 755 mmHg 94%
    02:00 -1°C° 0.1 mm 2 mps 755 mmHg 93%
    03:00 -2°C° 0 mm 3 mps 756 mmHg 93%
    04:00 -2°C° 0 mm 3 mps 756 mmHg 94%
    05:00 -2°C° 0 mm 3 mps 757 mmHg 94%
    06:00 -2°C° 0 mm 3 mps 757 mmHg 92%
    07:00 -4°C° 0 mm 4 mps 758 mmHg 90%
    08:00 -4°C° 0 mm 4 mps 759 mmHg 87%
    09:00 -4°C° 0 mm 4 mps 759 mmHg 85%
    10:00 -6°C° 0 mm 5 mps 759 mmHg 82%
    11:00 -6°C° 0 mm 5 mps 760 mmHg 79%
    12:00 -6°C° 0 mm 5 mps 759 mmHg 79%
    13:00 -7°C° 0 mm 5 mps 759 mmHg 78%
    14:00 -7°C° 0 mm 5 mps 759 mmHg 78%
    15:00 -7°C° 0 mm 5 mps 759 mmHg 79%
    16:00 -7°C° 0 mm 5 mps 759 mmHg 80%
    17:00 -7°C° 0 mm 5 mps 760 mmHg 82%
    18:00 -8°C° 0 mm 5 mps 760 mmHg 82%
    19:00 -10°C° 0 mm 6 mps 760 mmHg 82%
    20:00 -11°C° 0 mm 6 mps 760 mmHg 82%
    21:00 -11°C° 0 mm 6 mps 760 mmHg 82%
    22:00 -11°C° 0 mm 6 mps 759 mmHg 83%
    23:00 -11°C° 0 mm 6 mps 759 mmHg 83%
    Show more